www.pogodaiklimat.ru

Погода и климат >> Архив погоды >> Узбекистан >> Ташкент


АРХИВ ПОГОДЫ в Ташкенте

Время (UTC), дата Ветер
(напр.,м/с)
 
Видим.   Явления Облачность Т
(С)
Тd
(С)
f
(%)
Тe
(С)
Тes
(С)
Комфортность P
(гПа)
Po
(гПа)
Тmin
(С)
Tmax
(С)
R
(мм)
R24
(мм)
S
(см)
09 10.12 СЗ 2 50 км ясно +2.2 -5.3 58 -1 +3 прохладно 1031.8 971.5
12 10.12 С 2 50 км 1/0
[Ci fib]
+0.3 -6.3 61 -3 -3 холодно 1031.0 970.4
15 10.12 В 2 10 км ясно -1.6 -8.5 59 -5 -5 холодно 1031.0 969.9 +3.1
18 10.12 СЗ 1 10 км ясно -0.8 -7.3 61 -2 -2 прохладно 1028.9 968.2 +3.1
21 10.12 С 1 10 км ясно -2.2 -6.9 70 -4 -4 прохладно 1028.0 967.0
00 11.12 С 1 10 км ясно -2.2 -6.1 75 -4 -4 прохладно 1027.2 966.2
03 11.12 штиль 0 50 км 8/0
[Ci fib]
-3.3 -6.1 81 -4 -4 холодно 1027.6 966.4
06 11.12 штиль 0 4000 м дымка 9/0
[Ci fib]
+2.4 -3.9 63 +1 +5 прохладно 1026.5 966.6 -3.6
09 11.12 З 1 4000 м дымка 4/0
[Ci fib]
+6.2 -2.3 54 +6 +9 по сезону 1023.8 964.8
12 11.12 ЮВ 1 4000 м дымка 8/0
[Ci fib]
+2.8 -1.7 72 +1 +1 прохладно 1024.0 964.4
15 11.12 Ю 1 10 км ясно -0.1 -3.2 80 -2 -2 холодно 1025.2 964.9 +6.6
18 11.12 В 1 10 км ясно -1.7 -3.9 85 -4 -4 холодно 1025.4 964.7 +6.6
21 11.12 штиль 0 4000 м дымка 10/10 200 м
[St]
-1.5 -3.0 89 -3 -3 прохладно 1025.6 964.9
00 12.12 ЮВ 1 4000 м дымка 10/10 100 м
[St]
-4.2 -5.4 91 -7 -7 холодно 1026.9 965.5
03 12.12 штиль 0 1000 м дымка 10/10 100 м
[St]
-6.0 -6.8 94 -7 -7 очень
холодно
1028.6 966.8
06 12.12 Ю 2 1000 м снежные зёрна 10/10 100 м
[St]
-3.7 -5.2 89 -8 -8 очень
холодно
1029.2 967.8 -6.0
09 12.12 штиль 0 4000 м в посл. час зёрна {снег} 10/10 300 м
[St]
-3.2 -4.6 90 -4 -4 очень
холодно
1029.1 967.8
12 12.12 Ю 1 4000 м дымка {снег} 10/10 300 м
[St]
-3.2 -5.3 85 -5 -5 очень
холодно
1030.6 969.2
15 12.12 штиль 0 4000 м дымка 10/10 300 м
[St]
-3.5 -5.3 87 -5 -5 очень
холодно
1031.6 970.1 -2.8
18 12.12 Ю 1 4000 м дымка 10/10 100 м
[St]
-3.9 -5.4 89 -6 -6 холодно 1032.3 970.7 -2.8 0.2
21 12.12 В 2 1000 м дымка 10/10 100 м
[St]
-4.2 -5.4 91 -8 -8 очень
холодно
1032.4 970.7
00 13.12 В 1 4000 м дымка 4/4 600 м
[Sc]
-4.5 -5.8 91 -7 -7 холодно 1032.3 970.6
03 13.12 штиль 0 4000 м дымка ясно -5.4 -6.4 93 -6 -6 очень
холодно
1032.5 970.5
06 13.12 СЗ 1 2000 м дымка 8/0
[Ci]
-2.8 -4.8 86 -5 -2 очень
холодно
1031.6 970.3 -5.4
09 13.12 З 2 4000 м дымка ясно +1.0 -3.6 71 -2 +1 холодно 1029.6 969.2
12 13.12 СЗ 1 4000 м дымка ясно -1.3 -3.6 84 -3 -3 очень
холодно
1030.1 969.2
15 13.12 С 1 2000 м дымка ясно -4.0 -5.4 90 -6 -6 очень
холодно
1030.8 969.3 +1.9
18 13.12 З 1 <100 м туман ?/? -4.6 -5.2 96 -7 -7 очень
холодно
1030.9 969.3 +1.9
21 13.12 З 1 <100 м туман ?/? -4.6 -5.2 96 -7 -7 очень
холодно
1030.9 969.3
00 14.12 СЗ 1 <100 м туман ?/? -5.2 -5.9 95 -8 -8 очень
холодно
1031.5 969.6
03 14.12 С 1 500 м переохл. туман ?/? -4.6 -5.2 96 -7 -7 очень
холодно
1031.9 970.2
06 14.12 С 1 500 м переохл. туман ?/? -4.0 -4.9 93 -6 -6 очень
холодно
1032.7 971.1 -5.6
09 14.12 СЗ 1 4000 м дымка {туман} ясно -1.3 -3.0 88 -3 0 очень
холодно
1031.1 970.1
12 14.12 СВ 1 2000 м дымка {туман} 9/0
[Ci fib]
-4.8 -5.4 96 -7 -7 очень
холодно
1032.2 970.4
15 14.12 Ю 1 1000 м дымка 10/10 600 м
[Frnb]
-4.5 -5.1 96 -7 -7 очень
холодно
1032.8 971.1 -0.6
18 14.12 СВ 1 500 м туман ?/? -4.2 -4.7 96 -7 -7 очень
холодно
1032.0 970.3 -0.6
21 14.12 СВ 1 200 м туман ?/? -4.3 -4.9 96 -7 -7 очень
холодно
1031.5 969.8
00 15.12 ЮВ 1 200 м туман ?/? -4.2 -4.7 96 -7 -7 холодно 1031.4 969.7
03 15.12 Ю 1 500 м туман ?/? -4.2 -4.7 96 -7 -7 очень
холодно
1032.0 970.3
06 15.12 В 1 1000 м дымка {туман} 9/0
[Ac lent Ci fib]
-1.7 -4.8 79 -4 -2 очень
холодно
1031.8 970.6 -4.5
09 15.12 СЗ 1 4000 м дымка ясно 0.0 -3.6 77 -2 +2 холодно 1030.4 969.8
12 15.12 СВ 1 4000 м дымка ясно -1.2 -4.1 81 -3 -3 очень
холодно
1031.0 970.1
15 15.12 СЗ 1 2000 м дымка ясно -3.2 -4.9 88 -6 -6 очень
холодно
1031.9 970.4 +0.4
18 15.12 В 1 <100 м переохл. туман ?/? -3.7 -4.8 92 -6 -6 холодно 1031.7 970.1 +0.4
21 15.12 штиль 0 <100 м переохл. туман ?/? -4.2 -5.1 93 -5 -5 холодно 1031.3 969.6
00 16.12 штиль 0 <100 м переохл. туман ?/? -4.0 -4.9 93 -5 -5 прохладно 1031.1 969.5
03 16.12 штиль 0 <100 м переохл. туман ?/? -4.0 -4.9 93 -5 -5 холодно 1031.4 969.8
06 16.12 штиль 0 1000 м дымка {туман} 9/9 300 м
[St]
-1.4 -2.0 96 -3 -2 очень
холодно
1031.6 970.5 -4.5
09 16.12 С 1 4000 м дымка ясно +4.2 -3.0 59 +3 +7 по сезону 1029.3 969.6
12 16.12 штиль 0 1000 м дымка ясно -1.3 -3.2 87 -2 -2 холодно 1031.6 970.5
15 16.12 В 1 50 км переохл. туман ?/? -2.8 -3.1 98 -5 -5 очень
холодно
1032.6 971.2 +4.6
18 16.12 штиль 0 50 км переохл. туман ?/? -3.2 -3.5 98 -5 -5 холодно 1032.1 970.7 +4.6
21 16.12 Ю 1 50 км переохл. туман ?/? -3.3 -3.6 98 -6 -6 холодно 1031.9 970.4
00 17.12 штиль 0 50 км переохл. туман ?/? -4.0 -4.2 99 -5 -5 прохладно 1032.3 970.7
03 17.12 В 1 4000 м дымка {туман} 9/0
[Ac lent Ci]
-3.9 -4.4 96 -6 -6 очень
холодно
1032.7 971.1
06 17.12 СВ 1 10 км {туман} 9/8 600 м
[Sc Ac lent Ci]
+1.7 -1.4 80 0 +1 прохладно 1031.6 971.3 -4.3

 

Местоположение метеостанции Ташкент (Ташкентская область, Узбекистан): широта 41.27 долгота 69.27 высота над уровнем моря 466 м.

В архиве по умолчанию представлена погода в Ташкенте за последнюю неделю. Архивные данные за месяц целиком и за предыдущие месяцы, начиная с января 2011 года, Вы можете получить, выбрав интересующий диапазон дат из раскрывающегося списка и нажав кнопку "Ввод!".

Внимание! Время в таблицах - всемирное. Для получения местного времени необходимо прибавить поправку, которая в Ташкенте равна 5 ч.

Смотрите также архив погоды в соседних городах и на ближайших метеорологических станциях:

Погода в Каунчи (Ташкентская область, Узбекистан) (31 км)
Погода в Туябугузе (Ташкентская область, Узбекистан) (37 км)
Погода в Келесе (Южно-Казахстанская область, Казахстан) (38 км)
Погода в Красноярской (Южно-Казахстанская область, Казахстан) (54 км)
Погода в Казыгурте (Южно-Казахстанская область, Казахстан) (55 км)
Погода в Дуканте (Ташкентская область, Узбекистан) (68 км)
Погода в Чимгане (Ташкентская область, Узбекистан) (70 км)
Погода в Сырдарье (Сырдарьинская область, Узбекистан) (70 км)
Погода в Ангрене (Ташкентская область, Узбекистан) (82 км)
Погода в Жетысае (Южно-Казахстанская область, Казахстан) (96 км)

Пояснения к столбцам:

Ветер - указаны скорость ветра в м/с - средняя за 10 мин, порывы в срок и между сроками (в фигурных скобках) и направление, откуда дует ветер: С - северный, СВ - северо-восточный, В - восточный, ЮВ - юго-восточный, Ю - южный, ЮЗ - юго-западный, З - западный, СЗ - северо-западный.
Видимость - горизонтальная дальность видимости в метрах или километрах. При видимости от 1 до 10 км при отсутствии осадков обычно наблюдается дымка, при ухудшении видимости до 1 км и менее - туман. В сухую погоду видимость может ухудшаться дымом, пылью или мглою.
Явления - указаны атмосферные явления, наблюдавшиеся в срок или в последний час перед сроком; фигурными скобками обозначены явления, наблюдавшиеся между сроками (за 1-3 часа до срока); квадратными скобками обозначены град или гололедные отложения с указанием их диаметра в мм.
Облачность - указаны через наклонную черту общая и нижняя облачность в баллах и высота нижней границы облаков в метрах; квадратными скобками обозначены формы облаков: Ci - перистые, Cs - перисто-слоистые, Cc - перисто-кучевые, Ac - высококучевые, As - высокослоистые, Sc - слоисто-кучевые, Ns - слоисто-дождевые, Cu - кучевые, Cb - кучево-дождевые. Подробнее классификацию облаков см. в Атласе облаков (PDF).
T - Температура воздуха - температура, измеренная на высоте 2 м над землей.
Td - Температура точки росы - температура, при понижении до которой содержащийся в воздухе водяной пар достигнет насыщения.
f - Относительная влажность воздуха - влажноcть воздуха, измеренная на высоте 2 м над землей.
Te - Эффективная температура - температура, которую ощущает одетый по сезону человек в тени. Характеристика душности погоды. При расчете учитывается влияние влажности воздуха и скорости ветра на теплоощущения человека.
Tes - Эффективная температура на солнце - температура, которую ощущает человек, с поправкой на солнечный нагрев. Характеристика знойности погоды. Зависит от высоты солнца над горизонтом, облачности и скорости ветра. Ночью, в пасмурную погоду, а также при ветре 12 м/с и более поправка равна нулю.
P - Атмосферное давление - приведенное к уровню моря атмосферное давление.
Po - Атмосферное давление - измеренное на уровне метеостанции атмосферное давление.
Tmin - Минимальная температура - минимум температуры воздуха на высоте 2 м над землей.
Tmax - Максимальная температура - максимум температуры воздуха на высоте 2 м над землей.
R - Количество осадков - Количество выпавших осадков за период времени, мм. При наведении курсора мыши на число - период времени, за который выпало указанное количество осадков.
R24 - Количество осадков - Количество выпавших осадков за 24 часа, мм.
S - Снежный покров - Высота снежного покрова, см. При наведении курсора мыши на число - состояние снежного покрова и степень покрытия местности в баллах.